Phoenix Deer Valley, AZ

2:10 AM MST on May 28, 2018 (GMT -0700)
Phoenix-Deer Valley Municipal

Weather History for KDVT - November, 2012

Change the Weather History Date:

Thursday, November 8, 2012

  Actual Average Record
Temperature  
Mean Temperature 70 °F -  
Max Temperature 82 °F 72 °F 87 °F (2005)
Min Temperature 59 °F 52 °F 41 °F (2000)
Cooling Degree Days 6    
Growing Degree Days 20 (Base 50)    
Moisture  
Dew Point 36 °F    
Average Humidity 33    
Maximum Humidity 70    
Minimum Humidity 13    
Precipitation  
Precipitation 0.02 in - - ()
Sea Level Pressure  
Sea Level Pressure 29.84 in    
Wind  
Wind Speed 3 mph (SSE)    
Max Wind Speed 13 mph    
Max Gust Speed -    
Visibility 10 miles    
Events Rain    
Averages and records for this station are not official NWS values.
T = Trace of Precipitation, MM = Missing Value Source: NWS Daily Summary

Daily Weather History Graph

Daily Weather History Graph

Search for Another Location

Airport or City:

Astronomy

Nov. 08, 2012 Rise Set
Actual Time 6:54 AM MST 5:29 PM MST
Civil Twilight 6:28 AM MST 5:55 PM MST
Nautical Twilight 5:58 AM MST 6:25 PM MST
Astronomical Twilight 5:28 AM MST 6:54 PM MST
Moon 1:09 AM MST (11/8) 1:58 PM MST (11/8)
Length of Visible Light 11h 27m
Length of Day
10h 35m
Waning Crescent, 32% of the Moon is Illuminated
Nov 8
Waning Crescent
Nov 13
New
Nov 20
First Quarter
Nov 28
Full
Dec 6
Last Quarter

Hourly Weather History & Observations

Time (MST) Temp. Dew Point Humidity Pressure Visibility Wind Dir Wind Speed Gust Speed Precip Events Conditions
12:53 AM 62.1 °F 28.0 °F 28% 29.84 in 10.0 mi Calm Calm - N/A   Clear
1:53 AM 64.0 °F 28.9 °F 27% 29.84 in 10.0 mi Calm Calm - N/A   Clear
2:53 AM 66.0 °F 30.0 °F 26% 29.83 in 10.0 mi East 8.1 mph - N/A   Clear
3:53 AM 59.0 °F 28.0 °F 31% 29.83 in 10.0 mi Calm Calm - N/A   Clear
4:53 AM 60.1 °F 28.9 °F 31% 29.83 in 10.0 mi Calm Calm - N/A   Clear
5:53 AM 60.1 °F 28.0 °F 30% 29.83 in 10.0 mi Calm Calm - N/A   Clear
6:53 AM 59.0 °F 30.0 °F 33% 29.85 in 10.0 mi Calm Calm - N/A   Clear
7:53 AM 61.0 °F 28.9 °F 30% 29.87 in 10.0 mi Calm Calm - N/A   Clear
8:53 AM 68.0 °F 30.0 °F 24% 29.89 in 10.0 mi Calm Calm - N/A   Clear
9:53 AM 73.0 °F 30.0 °F 20% 29.89 in 10.0 mi Variable 5.8 mph - N/A   Clear
10:53 AM 75.9 °F 32.0 °F 20% 29.89 in 10.0 mi Variable 3.5 mph - N/A   Clear
11:53 AM 78.1 °F 28.9 °F 17% 29.87 in 10.0 mi Variable 4.6 mph - N/A   Clear
12:27 PM 80.6 °F 30.2 °F 16% 29.89 in 10.0 mi South 6.9 mph - N/A   Clear
12:53 PM 81.0 °F 30.0 °F 16% 29.82 in 10.0 mi SSW 8.1 mph - N/A   Clear
1:53 PM 82.0 °F 27.0 °F 13% 29.80 in 10.0 mi SSW 10.4 mph - N/A   Clear
2:53 PM 78.1 °F 32.0 °F 19% 29.81 in 10.0 mi South 10.4 mph - 0.00 in   Mostly Cloudy
3:53 PM 77.0 °F 39.0 °F 25% 29.81 in 10.0 mi WSW 6.9 mph - 0.00 in   Overcast
4:53 PM 77.0 °F 35.1 °F 22% 29.79 in 10.0 mi West 3.5 mph - N/A   Overcast
5:53 PM 75.0 °F 41.0 °F 29% 29.82 in 10.0 mi SSW 6.9 mph - 0.00 in Rain Light Rain
6:53 PM 71.1 °F 48.9 °F 45% 29.85 in 10.0 mi Calm Calm - 0.01 in Rain Light Rain
7:53 PM 64.9 °F 55.0 °F 70% 29.86 in 10.0 mi NNE 9.2 mph - 0.01 in Rain Light Rain
8:53 PM 64.9 °F 52.0 °F 63% 29.81 in 10.0 mi NE 12.7 mph - 0.00 in   Overcast
9:53 PM 66.0 °F 51.1 °F 59% 29.81 in 10.0 mi ENE 9.2 mph - N/A   Mostly Cloudy
10:53 PM 64.0 °F 52.0 °F 65% 29.80 in 10.0 mi East 6.9 mph - N/A   Partly Cloudy
11:53 PM 64.9 °F 48.9 °F 56% 29.78 in 10.0 mi East 6.9 mph - N/A   Partly Cloudy